[[{"header":{"parameterUnit":"m.s-1","parameterCategory":2,"la1":30.2991,"la2":30.254,"lo1":-89.0895,"lo2":-89.0444,"dy":0.0017,"dx":0.0017,"nx":28,"ny":28,"refTime":"2023-08-02T03:00:00:Z","depth":"0","parameterNumber":2,"parameterNumberName":"U-component_of_CURRENTS"},"data":[0,0,0,0,0,0,0,0,0,0,0,0,0,0,0,0,0,0,0,0,0,0,0,0,0,0,0,0,0,0,0,0,0,0,0,0,0,0,0,0,0,0,0,0,0,0,0,0,0,0,0,0,0,0,0,0,0,0,0.4042,0.4043,0,0.4086,0.4086,0.4086,0.4068,0.4067,0.4067,0.4066,0.4038,0.4038,0.4038,0,0,0,0,0,0,0,0,0,0,0,0,0,0.3929,0.393,0.4042,0.4043,0.4044,0.4086,0.4086,0.4086,0.4068,0.4067,0.4067,0.4066,0.4038,0.4038,0.4038,0,0,0,0,0,0,0,0,0,0,0,0,0,0.3971,0.3931,0.4042,0.4044,0.4045,0.4086,0.4086,0.4086,0.4068,0.4067,0.4066,0.4066,0.4038,0.4038,0.4038,0.4053,0,0,0.4037,0.4037,0,0,0,0,0,0,0,0,0.3968,0.3974,0.4042,0.4044,0.4045,0.4075,0.4036,0.4073,0.4068,0.4054,0.4066,0.4065,0.4048,0.4047,0.4051,0.4052,0.405,0.4037,0.4036,0.4036,0.4036,0,0,0,0,0,0,0,0.3966,0.3972,0.4054,0.4044,0.4045,0.4039,0.4043,0.4043,0.405,0.4055,0.4055,0.4069,0.4047,0.4051,0.405,0.405,0.4037,0.4036,0.4036,0.4036,0.4178,0.4181,0,0,0,0,0,0,0.3973,0.397,0.4053,0.4056,0.401,0.4042,0.4046,0.4062,0.4051,0.4051,0.4069,0.4068,0.4052,0.405,0.4048,0.4218,0.4036,0.4036,0.4036,0.4174,0.4178,0.4183,0,0,0,0,0,0,0.397,0.398,0.4051,0.4018,0.4027,0.4045,0.4062,0.4064,0.4078,0.4064,0.4061,0.4085,0.4051,0.4049,0.4063,0.421,0.4036,0.4036,0.4169,0.4175,0.4181,0.4459,0,0,0,0,0,0,0.3967,0.3979,0.3989,0.4018,0.4029,0.4095,0.4064,0.4065,0.409,0.4088,0.4076,0.4072,0.405,0.4063,0.4062,0.4207,0.4035,0.4164,0.4172,0.4179,0.4445,0.4474,0.4498,0,0,0,0,0,0.3962,0.4001,0.3989,0.3999,0.4044,0.4097,0.4102,0.4107,0.4092,0.4113,0.4099,0.4073,0.4112,0.4065,0.4063,0.4212,0.416,0.417,0.4178,0.4433,0.4468,0.4498,0,0,0,0,0,0,0.3955,0.4004,0.3992,0.4039,0.4068,0.4096,0.412,0.412,0.4127,0.4121,0.4093,0.4089,0.4176,0.4128,0.4077,0.4271,0.4145,0.4154,0.434,0.4372,0.4398,0.4478,0.4035,0,0,0,0,0,0.3958,0.4001,0.4032,0.407,0.4085,0.4099,0.4119,0.4127,0.4141,0.4143,0.414,0.415,0.4212,0.4231,0.4247,0.4325,0.4355,0.4425,0.4452,0.4475,0.4538,0.4727,0.4779,0.4212,0.4212,0.4212,0,0,0.3964,0.3998,0.402,0.4071,0.4088,0.4189,0.4109,0.4154,0.4259,0.4139,0.425,0.4232,0.4247,0.436,0.4397,0.4338,0.4641,0.4486,0.4507,0.4558,0.4742,0.4798,0.4848,0.4218,0.4217,0.4216,0,0,0.4046,0.4028,0.411,0.4156,0.4205,0.4234,0.4256,0.4291,0.4316,0.439,0.4378,0.4448,0.4471,0.4567,0.461,0.4788,0.4773,0.4777,0.4994,0.5178,0.5228,0.5273,0.5345,0.5394,0.4798,0.4799,0.4799,0,0.4059,0.417,0.4139,0.4251,0.4324,0.4277,0.4411,0.4449,0.4489,0.4538,0.4454,0.4612,0.4611,0.4848,0.4921,0.4868,0.491,0.4877,0.5222,0.5267,0.5308,0.5371,0.5422,0.4813,0.4812,0.481,0.4809,0,0.4221,0.4319,0.4372,0.4516,0.4579,0.467,0.4731,0.4785,0.4786,0.4824,0.4974,0.4973,0.5072,0.5108,0.5075,0.5387,0.5298,0.5235,0.5156,0.5384,0.5432,0.5481,0.4834,0.4829,0.4824,0.4821,0,0,0.4273,0.4453,0.4484,0.4584,0.4727,0.479,0.4974,0.5117,0.5215,0.5257,0.5415,0.5562,0.5511,0.556,0.5544,0.5714,0.6025,0.5613,0.5616,0.5713,0.6371,0.6202,0.6235,0.6027,0.6038,0.6046,0.6274,0,0.4428,0.4675,0.4737,0.4983,0.5121,0.5157,0.5317,0.5428,0.5472,0.5584,0.5654,0.5754,0.5701,0.5727,0.5921,0.597,0.617,0.5965,0.6112,0.6115,0.5965,0.6295,0.5963,0.6132,0.632,0.6328,0.6334,0,0.463,0.4755,0.5019,0.5217,0.5269,0.5395,0.5596,0.5725,0.5878,0.5897,0.6039,0.602,0.6273,0.6153,0.6493,0.6353,0.643,0.6472,0.648,0.6275,0.6042,0.594,0.6211,0.5974,0.6406,0.6401,0.6395,0,0.4739,0.498,0.5184,0.5262,0.5464,0.5563,0.5657,0.5819,0.5891,0.6084,0.6109,0.637,0.642,0.6652,0.6693,0.6632,0.7002,0.691,0.6855,0.6835,0.6563,0.6504,0.6656,0.7248,0.7247,0.7247,0.7246,0,0.4948,0.5114,0.5221,0.5334,0.5493,0.5622,0.5791,0.5893,0.6032,0.611,0.6244,0.6333,0.6553,0.6711,0.6824,0.697,0.7123,0.6996,0.6953,0.6636,0.6583,0.6361,0.6241,0.7255,0.7253,0.7252,0.725,0,0.5104,0.5206,0.5398,0.5541,0.5564,0.5675,0.5788,0.5864,0.601,0.6122,0.6172,0.635,0.6555,0.6724,0.7029,0.706,0.7039,0.726,0.6809,0.6713,0.6427,0.6332,0.6339,0.6172,0.73,0.7298,0.7297,0,0.524,0.5339,0.5458,0.5473,0.5527,0.5654,0.569,0.5843,0.5893,0.6104,0.6123,0.634,0.6428,0.6774,0.6915,0.7127,0.6942,0.6929,0.6813,0.6473,0.6338,0.6139,0.5982,0.6533,0.6526,0.652,0.6515,0,0.5366,0.537,0.5443,0.5462,0.5489,0.5542,0.56,0.5628,0.5786,0.586,0.5944,0.6042,0.6338,0.6386,0.6638,0.6741,0.6545,0.6807,0.6626,0.5948,0.5579,0.5365,0.6238,0.6459,0.6465,0.6469,0.6472,0.6474,0.5348,0.5365,0.5355,0.5375,0.5382,0.5334,0.5303,0.5353,0.5381,0.5406,0.5666,0.5732,0.5913,0.6212,0.6241,0.608,0.6197,0.5948,0.5919,0.5794,0.5481,0.6195,0.625,0.6254,0.6258,0.6261,0.6264,0,0.5225,0.5209,0.5227,0.5179,0.5103,0.517,0.5131,0.5042,0.4962,0.5139,0.5196,0.5288,0.5309,0.5435,0.5404,0.5224,0.5047,0.5086,0.4734,0.4676,0.5463,0.527,0.4904,0.4904,0.4904,0.4904,0.4905,0.4905,0.5136,0.5063,0.5065,0.4875,0.483,0.4621,0.455,0.4457,0.4519,0.4443,0.4483,0.4638,0.482,0.4832,0.46,0.4488,0.4161,0.3983,0.4061,0.4562,0.4638,0.4711,0.4505,0.3985,0.3984,0.3058,0.305,0.3045]},{"header":{"parameterUnit":"m.s-1","parameterCategory":2,"la1":30.2991,"la2":30.254,"lo1":-89.0895,"lo2":-89.0444,"dy":0.0017,"dx":0.0017,"nx":28,"ny":28,"refTime":"2023-08-02T03:00:00:Z","depth":"0","parameterNumber":3,"parameterNumberName":"V-component_of_CURRENTS"},"data":[0,0,0,0,0,0,0,0,0,0,0,0,0,0,0,0,0,0,0,0,0,0,0,0,0,0,0,0,0,0,0,0,0,0,0,0,0,0,0,0,0,0,0,0,0,0,0,0,0,0,0,0,0,0,0,0,0,0,0.0065,0.0064,0,-0.0006,-0.0007,-0.0008,-0.0063,-0.0064,-0.0064,-0.0064,-0.0174,-0.0176,-0.0179,0,0,0,0,0,0,0,0,0,0,0,0,0,0.008,0.008,0.0065,0.0064,0.0063,-0.0006,-0.0007,-0.0008,-0.0063,-0.0064,-0.0064,-0.0065,-0.0173,-0.0176,-0.0179,0,0,0,0,0,0,0,0,0,0,0,0,0,0.0046,0.008,0.0065,0.0029,0.0025,-0.0006,-0.0007,-0.0008,-0.0063,-0.0064,-0.0064,-0.0065,-0.0172,-0.0176,-0.0179,-0.0191,0,0,-0.0191,-0.0193,0,0,0,0,0,0,0,0,0.0048,0.0046,0.0035,0.0031,0.0027,-0.0025,-0.0042,-0.0071,-0.0063,-0.0031,-0.0064,-0.0065,-0.0126,-0.0134,-0.0147,-0.0196,-0.0201,-0.0191,-0.0194,-0.0195,-0.0196,0,0,0,0,0,0,0,0.0051,0.0048,0.0035,0.0034,0.0029,-0.0009,-0.0014,-0.0048,-0.0076,-0.0034,-0.0038,-0.0043,-0.0129,-0.0144,-0.015,-0.0203,-0.0191,-0.0195,-0.0197,-0.0199,-0.021,-0.0208,0,0,0,0,0,0,0.0067,0.0051,0.0037,0.0033,0.0038,-0.0008,-0.0014,-0.0009,-0.0075,-0.0085,-0.0043,-0.0045,-0.0137,-0.0146,-0.0155,-0.0086,-0.0195,-0.0199,-0.0201,-0.0212,-0.021,-0.0207,0,0,0,0,0,0,0.0068,0.0067,0.004,0.0041,0.0035,-0.0007,-0.0002,-0.001,-0.0021,-0.0081,-0.0092,-0.0044,-0.0138,-0.0149,-0.0173,-0.0094,-0.0201,-0.0204,-0.0214,-0.0211,-0.0209,-0.0005,0,0,0,0,0,0,0.0069,0.0068,0.0076,0.0042,0.0035,0.0047,-0.0001,-0.0011,-0.0022,-0.0027,-0.0086,-0.0097,-0.0139,-0.0167,-0.0177,-0.0101,-0.0207,-0.0217,-0.0213,-0.0209,-0.0014,0.0005,0.0021,0,0,0,0,0,0.007,0.0099,0.0077,0.0075,0.0049,0.0049,0.0043,0.0008,-0.0021,-0.0008,-0.0057,-0.0095,-0.015,-0.017,-0.0181,-0.0105,-0.0219,-0.0214,-0.021,-0.0022,0.0001,0.002,0,0,0,0,0,0,0.0115,0.0095,0.007,0.0092,0.0078,0.0041,0.0049,0.0018,-0.0012,-0.0019,-0.0086,-0.0099,-0.0084,-0.0136,-0.0156,-0.01,-0.0184,-0.0181,-0.0037,-0.0016,0.0001,0.0095,-0.021,0,0,0,0,0,0.0127,0.0144,0.0113,0.0133,0.0128,0.0085,0.0078,0.0057,0.0026,0.0013,-0.0031,-0.0069,-0.0075,-0.0081,-0.011,-0.0091,-0.0099,-0.0047,-0.0029,-0.0014,0.0053,0.0108,0.0139,-0.0193,-0.0193,-0.0193,0,0,0.0152,0.0142,0.0151,0.0143,0.0125,0.0169,0.008,0.0086,0.0132,0.0005,0.004,-0.0017,-0.0061,-0.0027,-0.0023,-0.006,0.0065,-0.0008,0.0006,0.0065,0.0117,0.015,0.0179,-0.019,-0.019,-0.0191,0,0,0.0238,0.0199,0.0254,0.0255,0.0242,0.0223,0.0231,0.0198,0.019,0.0201,0.014,0.0143,0.0094,0.0114,0.0111,0.0207,0.015,0.0173,0.0351,0.0403,0.0433,0.0459,0.0453,0.0477,0.019,0.0191,0.0191,0,0.0272,0.0335,0.027,0.0331,0.0355,0.0263,0.0344,0.033,0.0296,0.0312,0.0242,0.0247,0.0193,0.0294,0.0326,0.026,0.0245,0.0277,0.0433,0.0458,0.0482,0.047,0.0494,0.0201,0.02,0.0199,0.0198,0,0.0408,0.046,0.0493,0.0545,0.0557,0.0604,0.058,0.0586,0.0546,0.0534,0.0585,0.0517,0.0534,0.0513,0.045,0.0595,0.0512,0.0445,0.0394,0.0529,0.0505,0.0527,0.0216,0.0212,0.0209,0.0207,0,0,0.0507,0.0578,0.0598,0.0652,0.0675,0.0699,0.0776,0.0824,0.0888,0.0846,0.095,0.0937,0.088,0.0877,0.08,0.0849,0.0967,0.0729,0.0727,0.0751,0.1047,0.0912,0.092,0.0919,0.0925,0.0929,0.0951,0,0.0646,0.0802,0.0804,0.0953,0.1026,0.0985,0.1069,0.109,0.1081,0.1143,0.1109,0.1154,0.1024,0.1032,0.1072,0.0992,0.104,0.0966,0.0891,0.089,0.0777,0.0948,0.0869,0.0877,0.0971,0.0975,0.0977,0,0.0806,0.0881,0.1051,0.1155,0.1183,0.125,0.1346,0.1412,0.1467,0.1463,0.1508,0.1446,0.152,0.1374,0.1384,0.1333,0.1235,0.1164,0.1161,0.1,0.0799,0.0762,0.0912,0.0598,0.1009,0.1007,0.1004,0,0.0913,0.1064,0.1198,0.1236,0.1333,0.1395,0.1446,0.1509,0.1584,0.1673,0.173,0.1763,0.1792,0.1722,0.155,0.1478,0.1539,0.1405,0.1202,0.1186,0.1095,0.1063,0.0969,0.1459,0.1459,0.1459,0.1459,0,0.1073,0.118,0.1249,0.1318,0.1467,0.1498,0.1656,0.1702,0.1812,0.1945,0.19,0.2013,0.1886,0.1864,0.1684,0.1525,0.1643,0.1303,0.1226,0.1151,0.1125,0.0822,0.0685,0.1459,0.1459,0.1459,0.1459,0,0.1189,0.1241,0.1382,0.1487,0.152,0.1624,0.1762,0.1878,0.1961,0.2144,0.2187,0.2237,0.2212,0.2042,0.1932,0.1696,0.1375,0.1453,0.1344,0.1254,0.0714,0.0594,0.0501,0.0389,0.1239,0.1237,0.1235,0,0.1274,0.136,0.1481,0.155,0.1597,0.1735,0.1838,0.1944,0.2071,0.2284,0.239,0.2431,0.2488,0.2256,0.1882,0.1578,0.133,0.1247,0.1106,0.0743,0.0552,0.0464,0.0371,0.1042,0.1038,0.1035,0.1033,0,0.1415,0.1439,0.1531,0.1664,0.1767,0.1917,0.2064,0.2181,0.2345,0.2516,0.274,0.2817,0.2583,0.2278,0.1813,0.1543,0.1009,0.117,0.0867,0.0488,0.0326,0.0158,0.0914,0.1007,0.101,0.1011,0.1013,0.1014,0.1487,0.156,0.1649,0.1775,0.1903,0.2071,0.2206,0.2393,0.2628,0.2905,0.2979,0.3162,0.262,0.1989,0.1584,0.0715,0.081,0.0423,0.0334,0.0297,0.0127,0.0796,0.0743,0.0744,0.0745,0.0746,0.0746,0,0.1552,0.1616,0.1751,0.1887,0.2034,0.2094,0.2337,0.2505,0.2789,0.3093,0.3308,0.3125,0.2443,0.1725,0.0575,-0.0013,-0.0184,-0.0325,-0.0459,-0.0492,0.016,0.0079,-0.0208,-0.0208,-0.0208,-0.0207,-0.0207,-0.0207,0.1582,0.1681,0.1739,0.1951,0.2064,0.2279,0.2422,0.2708,0.2973,0.3293,0.3415,0.3471,0.2786,0.0848,-0.0508,-0.0788,-0.1105,-0.1191,-0.1307,-0.0916,-0.0854,-0.0794,-0.0905,-0.1394,-0.1395,-0.1939,-0.1945,-0.195]}],[{"header":{"parameterUnit":"m.s-1","parameterCategory":2,"la1":30.2991,"la2":30.254,"lo1":-89.0895,"lo2":-89.0444,"dy":0.0017,"dx":0.0017,"nx":28,"ny":28,"refTime":"2023-08-02T03:00:00:Z","depth":"2","parameterNumber":2,"parameterNumberName":"U-component_of_CURRENTS"},"data":[0,0,0,0,0,0,0,0,0,0,0,0,0,0,0,0,0,0,0,0,0,0,0,0,0,0,0,0,0,0,0,0,0,0,0,0,0,0,0,0,0,0,0,0,0,0,0,0,0,0,0,0,0,0,0,0,0,0,0.3118,0.3118,0,0.3136,0.3136,0.3136,0.313,0.313,0.3129,0.3129,0.3165,0.3166,0.3168,0,0,0,0,0,0,0,0,0,0,0,0,0,0.3069,0.307,0.3118,0.3118,0.3118,0.3136,0.3136,0.3137,0.3131,0.313,0.3129,0.3128,0.3164,0.3166,0.3168,0,0,0,0,0,0,0,0,0,0,0,0,0,0.3091,0.307,0.3118,0.3115,0.3115,0.3135,0.3136,0.3137,0.3131,0.313,0.3129,0.3128,0.3164,0.3166,0.3168,0.3201,0,0,0.3175,0.3176,0,0,0,0,0,0,0,0,0.309,0.3093,0.3116,0.3115,0.3115,0.3128,0.3132,0.3158,0.3131,0.3127,0.3129,0.3128,0.3153,0.3156,0.3165,0.3202,0.3204,0.3175,0.3177,0.3178,0.3178,0,0,0,0,0,0,0,0.3088,0.3092,0.3128,0.3116,0.3115,0.3109,0.3112,0.3137,0.3148,0.3128,0.3127,0.3125,0.3153,0.3163,0.3166,0.3205,0.3175,0.3177,0.3179,0.318,0.3308,0.3309,0,0,0,0,0,0,0.3083,0.3091,0.3127,0.3128,0.3097,0.3111,0.3114,0.3127,0.3147,0.3148,0.3126,0.3125,0.3159,0.3163,0.3167,0.3314,0.3178,0.318,0.3181,0.3306,0.3308,0.331,0,0,0,0,0,0,0.3082,0.3087,0.3126,0.3107,0.3111,0.3113,0.3127,0.3127,0.3156,0.3145,0.3147,0.3156,0.3159,0.3164,0.3196,0.3311,0.3181,0.3183,0.3303,0.3306,0.3309,0.3538,0,0,0,0,0,0,0.3081,0.3087,0.3094,0.3107,0.3112,0.3155,0.3128,0.3128,0.3154,0.3153,0.3171,0.3172,0.3158,0.3193,0.3199,0.3311,0.3185,0.3301,0.3305,0.3308,0.3528,0.3549,0.3567,0,0,0,0,0,0.308,0.3089,0.3095,0.3098,0.3122,0.3156,0.3159,0.3157,0.3157,0.3179,0.3181,0.3172,0.3221,0.3196,0.3203,0.3319,0.3299,0.3303,0.3308,0.352,0.3545,0.3566,0,0,0,0,0,0,0.3068,0.309,0.3096,0.3111,0.314,0.3154,0.3173,0.3178,0.32,0.3204,0.3193,0.3195,0.3272,0.3241,0.3214,0.3357,0.3262,0.3268,0.3421,0.3445,0.3463,0.3493,0.3187,0,0,0,0,0,0.3071,0.3099,0.3114,0.3139,0.3153,0.3173,0.3187,0.3194,0.3211,0.3221,0.323,0.3245,0.3295,0.3322,0.3334,0.3414,0.3393,0.3487,0.3506,0.3523,0.3546,0.3677,0.3713,0.3325,0.3325,0.3325,0,0,0.3076,0.3094,0.3109,0.3141,0.3167,0.3214,0.3182,0.3221,0.3285,0.3223,0.3306,0.331,0.3323,0.3413,0.3447,0.3408,0.3597,0.3529,0.3545,0.3558,0.3686,0.3725,0.3759,0.3328,0.3328,0.3327,0,0,0.3111,0.3123,0.3158,0.3171,0.3209,0.3252,0.3272,0.3302,0.3341,0.3405,0.3398,0.3463,0.3501,0.3562,0.3595,0.3722,0.3689,0.3724,0.3871,0.4,0.4034,0.4065,0.3991,0.4014,0.3745,0.3746,0.3746,0,0.3113,0.3169,0.3175,0.3198,0.3235,0.3281,0.3339,0.3395,0.3434,0.3494,0.345,0.357,0.359,0.3749,0.3806,0.3781,0.3772,0.3797,0.4033,0.4064,0.4092,0.4009,0.4031,0.3758,0.3756,0.3755,0.3754,0,0.3168,0.3206,0.3233,0.3307,0.3343,0.3407,0.3474,0.3544,0.3605,0.366,0.3792,0.3808,0.3882,0.3922,0.392,0.4137,0.403,0.4044,0.3993,0.4146,0.4045,0.4064,0.3774,0.377,0.3767,0.3764,0,0,0.3206,0.3268,0.3277,0.3289,0.3408,0.3417,0.3589,0.3741,0.3831,0.3905,0.4033,0.4163,0.4167,0.4202,0.4211,0.4339,0.4513,0.4299,0.43,0.4251,0.4669,0.457,0.4577,0.4602,0.4609,0.4614,0.4484,0,0.3274,0.3319,0.3373,0.3447,0.3477,0.3572,0.3713,0.3835,0.3955,0.4076,0.4187,0.4293,0.428,0.4323,0.4465,0.4546,0.459,0.4537,0.4502,0.4497,0.4421,0.4611,0.4256,0.4115,0.4502,0.4505,0.4508,0,0.3309,0.3345,0.3441,0.3484,0.3512,0.3586,0.3778,0.3902,0.4134,0.4245,0.4402,0.4431,0.4656,0.4585,0.4796,0.4774,0.4727,0.4738,0.4734,0.459,0.4442,0.4041,0.4134,0.4538,0.4536,0.4534,0.4532,0,0.3278,0.3354,0.3447,0.3461,0.3579,0.3653,0.3742,0.3955,0.4109,0.4357,0.4503,0.4673,0.4838,0.4877,0.4925,0.4885,0.5088,0.5014,0.4813,0.4794,0.4458,0.4403,0.5081,0.5081,0.5081,0.5082,0.5082,0,0.3283,0.3276,0.3419,0.3434,0.354,0.3603,0.3785,0.3916,0.4178,0.4388,0.4577,0.4713,0.4958,0.5067,0.4991,0.5009,0.5139,0.487,0.4825,0.4509,0.4464,0.4817,0.4788,0.5077,0.5078,0.5079,0.508,0,0.3112,0.3248,0.3297,0.3457,0.3527,0.3558,0.3796,0.3931,0.4215,0.4498,0.4602,0.4891,0.5086,0.5179,0.5273,0.5148,0.5097,0.5003,0.4533,0.4443,0.4639,0.4623,0.4758,0.4755,0.4752,0.475,0.4748,0,0.3006,0.3066,0.3285,0.3388,0.3451,0.3577,0.3739,0.3971,0.4142,0.4531,0.4652,0.4935,0.5018,0.513,0.5071,0.494,0.5041,0.4463,0.4358,0.4699,0.464,0.4628,0.4615,0.3904,0.3896,0.3889,0.3883,0,0.2884,0.3018,0.3114,0.3312,0.3472,0.3583,0.377,0.3861,0.4191,0.4437,0.4597,0.4633,0.4844,0.4629,0.4617,0.4455,0.4492,0.4314,0.489,0.409,0.3901,0.3841,0.3855,0.3821,0.3827,0.3832,0.3835,0.3837,0.2859,0.2903,0.3165,0.3219,0.3428,0.3489,0.3477,0.3673,0.3835,0.3997,0.4205,0.4197,0.4261,0.4053,0.3901,0.3872,0.4129,0.3865,0.3884,0.3911,0.3886,0.3711,0.3574,0.3579,0.3583,0.3586,0.3589,0,0.2882,0.2963,0.3064,0.3193,0.3242,0.3402,0.3489,0.339,0.3409,0.3597,0.3654,0.3339,0.32,0.3335,0.3175,0.3117,0.3058,0.2997,0.2889,0.2955,0.3012,0.294,0.2377,0.2373,0.2369,0.2365,0,0,0.2957,0.3002,0.2945,0.2968,0.3071,0.3086,0.3037,0.2896,0.29,0.2746,0.2777,0.2918,0.3137,0.2674,0.2639,0.2491,0.2686,0.2391,0.3369,0.3305,0.3356,0.3528,0.3494,0,0,0,0,0]},{"header":{"parameterUnit":"m.s-1","parameterCategory":2,"la1":30.2991,"la2":30.254,"lo1":-89.0895,"lo2":-89.0444,"dy":0.0017,"dx":0.0017,"nx":28,"ny":28,"refTime":"2023-08-02T03:00:00:Z","depth":"2","parameterNumber":3,"parameterNumberName":"V-component_of_CURRENTS"},"data":[0,0,0,0,0,0,0,0,0,0,0,0,0,0,0,0,0,0,0,0,0,0,0,0,0,0,0,0,0,0,0,0,0,0,0,0,0,0,0,0,0,0,0,0,0,0,0,0,0,0,0,0,0,0,0,0,0,0,-0.0054,-0.0055,0,-0.0115,-0.0116,-0.0117,-0.0157,-0.0157,-0.0157,-0.0157,-0.0259,-0.0261,-0.0264,0,0,0,0,0,0,0,0,0,0,0,0,0,-0.004,-0.004,-0.0054,-0.0055,-0.0055,-0.0115,-0.0116,-0.0117,-0.0157,-0.0157,-0.0157,-0.0157,-0.0258,-0.0261,-0.0264,0,0,0,0,0,0,0,0,0,0,0,0,0,-0.0069,-0.004,-0.0054,-0.0081,-0.0084,-0.0115,-0.0116,-0.0117,-0.0157,-0.0157,-0.0157,-0.0158,-0.0257,-0.0261,-0.0265,-0.0286,0,0,-0.0277,-0.0278,0,0,0,0,0,0,0,0,-0.0068,-0.007,-0.0076,-0.0079,-0.0083,-0.0127,-0.0148,-0.0175,-0.0157,-0.0131,-0.0157,-0.0158,-0.0217,-0.0224,-0.0238,-0.029,-0.0295,-0.0277,-0.0279,-0.0281,-0.0282,0,0,0,0,0,0,0,-0.0065,-0.0068,-0.008,-0.0077,-0.0081,-0.0113,-0.0117,-0.0154,-0.0175,-0.0133,-0.0136,-0.014,-0.0219,-0.0234,-0.024,-0.0296,-0.0277,-0.028,-0.0283,-0.0284,-0.0359,-0.0358,0,0,0,0,0,0,-0.005,-0.0066,-0.0078,-0.0082,-0.0073,-0.0113,-0.0118,-0.0114,-0.0174,-0.0182,-0.014,-0.0142,-0.0227,-0.0236,-0.0244,-0.0251,-0.0281,-0.0285,-0.0287,-0.0359,-0.0359,-0.0358,0,0,0,0,0,0,-0.005,-0.0051,-0.0076,-0.0074,-0.008,-0.0112,-0.0109,-0.0115,-0.0127,-0.0178,-0.0187,-0.0144,-0.0227,-0.0239,-0.0269,-0.0256,-0.0286,-0.029,-0.0359,-0.0359,-0.0358,-0.0279,0,0,0,0,0,0,-0.0049,-0.005,-0.0045,-0.0073,-0.0079,-0.0086,-0.0109,-0.0116,-0.0128,-0.0131,-0.0185,-0.0194,-0.0228,-0.0262,-0.0273,-0.0262,-0.0293,-0.036,-0.0359,-0.0359,-0.0282,-0.0275,-0.027,0,0,0,0,0,-0.0048,-0.0033,-0.0044,-0.0046,-0.007,-0.0086,-0.0092,-0.0118,-0.0128,-0.013,-0.0164,-0.0193,-0.0265,-0.0265,-0.0277,-0.0267,-0.036,-0.0359,-0.0359,-0.0284,-0.0277,-0.027,0,0,0,0,0,0,-0.0023,-0.0036,-0.0049,-0.0039,-0.0059,-0.0092,-0.0093,-0.0113,-0.0141,-0.0141,-0.0192,-0.0204,-0.0227,-0.0259,-0.0258,-0.0287,-0.0316,-0.0318,-0.0256,-0.0249,-0.0243,-0.0204,-0.0296,0,0,0,0,0,-0.0014,-0.0007,-0.0031,-0.0024,-0.003,-0.0062,-0.0072,-0.0087,-0.0114,-0.0127,-0.0165,-0.0202,-0.0234,-0.0249,-0.0286,-0.0302,-0.0345,-0.0303,-0.0297,-0.0292,-0.0268,-0.0307,-0.0302,-0.0355,-0.0355,-0.0355,0,0,-0.0003,-0.0009,-0.0005,-0.0018,-0.0035,-0.0035,-0.0068,-0.0073,-0.0068,-0.0134,-0.0142,-0.0188,-0.0235,-0.0253,-0.0265,-0.0276,-0.031,-0.0291,-0.0286,-0.0264,-0.0306,-0.0301,-0.0296,-0.0355,-0.0355,-0.0355,0,0,0.0032,0.0021,0.0039,0.0025,0.0009,-0.001,-0.0008,-0.0037,-0.0044,-0.006,-0.0104,-0.0134,-0.0187,-0.0212,-0.0233,-0.0216,-0.0282,-0.0235,-0.0168,-0.0207,-0.0203,-0.0199,-0.029,-0.0295,-0.0226,-0.0226,-0.0226,0,0.0045,0.0068,0.004,0.005,0.0047,0.0007,0.0023,0.0009,-0.0026,-0.0018,-0.005,-0.0117,-0.0161,-0.0174,-0.0165,-0.0201,-0.0251,-0.019,-0.0198,-0.0195,-0.0193,-0.0287,-0.0293,-0.0222,-0.0223,-0.0223,-0.0223,0,0.009,0.0104,0.0114,0.0115,0.0103,0.0113,0.009,0.0085,0.0068,0.0059,0.004,-0.0029,-0.0061,-0.0088,-0.0119,-0.0122,-0.0177,-0.019,-0.0211,-0.0182,-0.0284,-0.0292,-0.0217,-0.0218,-0.0219,-0.022,0,0,0.0137,0.0147,0.0152,0.0162,0.0142,0.0141,0.0154,0.0163,0.0185,0.0142,0.0161,0.0101,0.0068,0.0043,-0.0017,-0.0047,-0.0094,-0.0099,-0.0103,-0.0181,-0.0221,-0.0188,-0.0195,-0.0107,-0.0107,-0.0106,-0.0314,0,0.0184,0.0224,0.0214,0.0245,0.026,0.0231,0.0243,0.0243,0.0239,0.0245,0.0194,0.0182,0.0117,0.0097,0.0058,-0.0025,-0.0105,-0.0039,-0.0243,-0.025,-0.0215,-0.0197,-0.0152,-0.0324,-0.0323,-0.0324,-0.0325,0,0.023,0.0254,0.029,0.0315,0.0319,0.0323,0.0341,0.0349,0.0355,0.0349,0.0333,0.0301,0.0269,0.0189,0.0049,0.0097,-0.006,-0.0155,-0.0166,-0.0156,-0.0228,-0.0345,-0.034,-0.034,-0.0339,-0.0338,-0.0337,0,0.0263,0.031,0.0341,0.0343,0.0354,0.0368,0.0376,0.0384,0.0395,0.0418,0.0432,0.039,0.0365,0.022,0.0081,0.0052,-0.0091,-0.0166,-0.0319,-0.0322,-0.0329,-0.033,-0.0328,-0.0327,-0.0327,-0.0326,-0.0326,0,0.0305,0.0335,0.0359,0.0366,0.0402,0.0403,0.0427,0.0442,0.0453,0.0507,0.0483,0.0519,0.0379,0.0307,0.0118,-0.0072,-0.0069,-0.0298,-0.0351,-0.0305,-0.0302,-0.0338,-0.0337,-0.0334,-0.0332,-0.0331,-0.033,0,0.0323,0.0333,0.0374,0.0407,0.0402,0.0429,0.0428,0.0474,0.0483,0.0548,0.0566,0.06,0.057,0.0403,0.0191,-0.0012,-0.0209,-0.0316,-0.0261,-0.0301,-0.046,-0.0453,-0.0536,-0.0536,-0.0536,-0.0536,-0.0536,0,0.0324,0.0348,0.0388,0.0404,0.0413,0.0431,0.0452,0.0463,0.0541,0.0626,0.0704,0.0703,0.0771,0.0494,0.0208,-0.011,-0.0181,-0.0366,-0.0408,-0.0427,-0.0472,-0.0464,-0.0456,-0.0439,-0.0438,-0.0438,-0.0437,0,0.032,0.034,0.037,0.0449,0.0474,0.0522,0.0589,0.0664,0.0744,0.0839,0.1056,0.1113,0.0869,0.0667,0.022,-0.0015,-0.0282,-0.0366,-0.0383,-0.0353,-0.034,-0.0382,-0.0378,-0.0432,-0.0432,-0.0433,-0.0433,-0.0433,0.0306,0.0345,0.041,0.0514,0.0549,0.0714,0.0807,0.0968,0.1152,0.1372,0.1353,0.1424,0.104,0.0573,0.0194,-0.0218,-0.0245,-0.0453,-0.0454,-0.0456,-0.0365,-0.0348,-0.0431,-0.0432,-0.0432,-0.0433,-0.0433,0,0.0316,0.0384,0.0477,0.061,0.0734,0.0733,0.0961,0.1133,0.146,0.159,0.1739,0.1421,0.1107,0.0681,0.0078,-0.0329,-0.0378,-0.0452,-0.0437,-0.0439,-0.0442,-0.035,-0.0414,-0.0415,-0.0415,-0.0416,0,0,0.0312,0.0441,0.0556,0.0786,0.0857,0.105,0.1217,0.151,0.1694,0.1906,0.1892,0.1786,0.1238,0.0798,0.0282,-0.0051,-0.0158,-0.0123,-0.01,-0.0022,-0.002,-0.0405,-0.0262,0,0,0,0,0]}],[{"header":{"parameterUnit":"m.s-1","parameterCategory":2,"la1":30.2991,"la2":30.254,"lo1":-89.0895,"lo2":-89.0444,"dy":0.0017,"dx":0.0017,"nx":28,"ny":28,"refTime":"2023-08-02T03:00:00:Z","depth":"4","parameterNumber":2,"parameterNumberName":"U-component_of_CURRENTS"},"data":[0,0,0,0,0,0,0,0,0,0,0,0,0,0,0,0,0,0,0,0,0,0,0,0,0,0,0,0,0,0,0,0,0,0,0,0,0,0,0,0,0,0,0,0,0,0,0,0,0,0,0,0,0,0,0,0,0,0,0.1756,0.1757,0,0.1836,0.1837,0.1837,0.1908,0.1909,0.191,0.1911,0.1982,0.1983,0.1984,0,0,0,0,0,0,0,0,0,0,0,0,0,0.1658,0.1659,0.1755,0.1757,0.1758,0.1836,0.1837,0.1838,0.1908,0.1909,0.1911,0.1912,0.1982,0.1983,0.1984,0,0,0,0,0,0,0,0,0,0,0,0,0,0.1714,0.166,0.1755,0.1804,0.1809,0.1836,0.1837,0.1838,0.1908,0.1909,0.1911,0.1912,0.1982,0.1983,0.1984,0.1964,0,0,0.1989,0.199,0,0,0,0,0,0,0,0,0.1711,0.1717,0.1795,0.1801,0.1806,0.1865,0.1829,0.188,0.1908,0.1868,0.1911,0.1913,0.1942,0.1947,0.1956,0.1967,0.197,0.1989,0.199,0.1991,0.1991,0,0,0,0,0,0,0,0.1707,0.1714,0.1785,0.1797,0.1803,0.182,0.1829,0.1839,0.1894,0.1872,0.1878,0.1889,0.1945,0.1955,0.1959,0.1971,0.1989,0.199,0.1991,0.1992,0.2102,0.2104,0,0,0,0,0,0,0.1699,0.171,0.1783,0.1788,0.1763,0.1821,0.1831,0.1843,0.1895,0.1905,0.1888,0.1892,0.1952,0.1957,0.1961,0.2054,0.1991,0.1992,0.1993,0.21,0.2102,0.2104,0,0,0,0,0,0,0.1697,0.1705,0.178,0.1752,0.1764,0.1821,0.1834,0.1844,0.1895,0.1907,0.1917,0.1934,0.1953,0.1959,0.2006,0.2053,0.1993,0.1994,0.2097,0.2101,0.2103,0.2166,0,0,0,0,0,0,0.1694,0.1703,0.1721,0.1752,0.1765,0.1824,0.1833,0.1845,0.1898,0.1906,0.1949,0.1955,0.1955,0.2004,0.2007,0.2054,0.1995,0.2095,0.2099,0.2102,0.2162,0.2171,0.2179,0,0,0,0,0,0.169,0.1704,0.1721,0.1731,0.1783,0.1826,0.1834,0.1878,0.19,0.1928,0.1958,0.1955,0.2031,0.2006,0.201,0.2058,0.2093,0.2098,0.2102,0.2158,0.2169,0.2179,0,0,0,0,0,0,0.1675,0.1713,0.1733,0.176,0.1804,0.1839,0.1877,0.1898,0.1944,0.1965,0.1971,0.1979,0.2032,0.2039,0.201,0.2103,0.2066,0.2072,0.2107,0.2118,0.2127,0.2171,0.1996,0,0,0,0,0,0.1677,0.1701,0.1741,0.1771,0.18,0.1845,0.1873,0.1904,0.1942,0.1966,0.1992,0.2025,0.2046,0.2078,0.2091,0.2142,0.2149,0.218,0.2189,0.2197,0.2237,0.2273,0.2289,0.212,0.212,0.2119,0,0,0.168,0.1706,0.1722,0.177,0.1816,0.185,0.1868,0.1929,0.1962,0.1964,0.2029,0.2048,0.2062,0.2116,0.2144,0.2136,0.2244,0.2203,0.2209,0.2246,0.228,0.2296,0.2311,0.2123,0.2122,0.2122,0,0,0.1689,0.1731,0.1753,0.1796,0.1864,0.1885,0.191,0.1969,0.2011,0.2065,0.2072,0.2131,0.2167,0.2196,0.221,0.2279,0.2274,0.2288,0.2389,0.2422,0.2437,0.245,0.2456,0.2469,0.2311,0.2311,0.2311,0,0.1696,0.172,0.1768,0.1808,0.1836,0.1903,0.1929,0.1982,0.2046,0.2088,0.2101,0.2197,0.2208,0.2279,0.2319,0.2301,0.2316,0.2341,0.2434,0.2447,0.2459,0.2463,0.2477,0.2315,0.2314,0.2314,0.2314,0,0.1716,0.1749,0.1778,0.1835,0.187,0.1918,0.198,0.2043,0.2098,0.2149,0.2251,0.2288,0.2361,0.2369,0.2375,0.2476,0.2454,0.2421,0.2404,0.248,0.2479,0.2492,0.232,0.2319,0.2318,0.2317,0,0,0.1689,0.1769,0.1784,0.18,0.1888,0.191,0.1992,0.2067,0.2128,0.2238,0.2318,0.241,0.2481,0.2505,0.2527,0.2585,0.267,0.2571,0.2571,0.2575,0.2744,0.2581,0.2579,0.266,0.2663,0.2666,0.27,0,0.1691,0.1726,0.1777,0.1817,0.1829,0.1922,0.1978,0.2069,0.2156,0.2257,0.2377,0.246,0.2516,0.2565,0.2648,0.2645,0.2714,0.2665,0.2676,0.2677,0.2519,0.2592,0.2676,0.2709,0.2712,0.2714,0.2716,0,0.1671,0.1695,0.1715,0.1775,0.1799,0.1846,0.1942,0.2015,0.2187,0.2268,0.2431,0.2515,0.2664,0.2674,0.2803,0.2774,0.2802,0.2804,0.2803,0.2649,0.2539,0.2625,0.2739,0.2737,0.2735,0.2734,0.2732,0,0.1551,0.164,0.1639,0.1668,0.176,0.1811,0.1886,0.2029,0.2113,0.2301,0.2392,0.2565,0.267,0.2749,0.2837,0.2822,0.2937,0.2883,0.2769,0.2756,0.2863,0.2849,0.2989,0.2989,0.2989,0.2989,0.2989,0,0.1473,0.1482,0.1601,0.1597,0.1643,0.1746,0.1835,0.1938,0.2116,0.2226,0.2422,0.2533,0.2706,0.2809,0.2851,0.2862,0.2958,0.2814,0.2769,0.2883,0.2872,0.2869,0.2855,0.299,0.299,0.299,0.2989,0,0.1306,0.1388,0.139,0.151,0.1573,0.1603,0.181,0.1878,0.207,0.2219,0.2295,0.2537,0.2669,0.28,0.2898,0.2856,0.2865,0.2849,0.2974,0.2929,0.2653,0.2642,0.2693,0.2688,0.2683,0.268,0.2677,0,0.1198,0.1187,0.1307,0.1349,0.1415,0.153,0.1616,0.1825,0.1909,0.2206,0.2251,0.2478,0.2625,0.2642,0.2776,0.2821,0.2816,0.2777,0.2732,0.268,0.2631,0.2626,0.2621,0.267,0.2669,0.2668,0.2666,0,0.1003,0.1068,0.1095,0.1189,0.1277,0.137,0.1522,0.158,0.183,0.2017,0.2174,0.2296,0.2447,0.2548,0.2617,0.2648,0.2761,0.2731,0.2739,0.2697,0.2652,0.2606,0.2607,0.2651,0.2653,0.2655,0.2656,0,0.0878,0.0861,0.0946,0.1031,0.1126,0.1202,0.1305,0.1451,0.1577,0.1908,0.195,0.2213,0.2413,0.2461,0.2518,0.254,0.2509,0.2408,0.2433,0.2451,0.2364,0.227,0.2137,0,0,0,0,0,0.0781,0.0786,0.0811,0.0875,0.0962,0.1052,0.1239,0.1359,0.1606,0.1653,0.1809,0.1952,0.2109,0.2235,0.2217,0.2406,0.25,0.237,0.239,0.2567,0.2585,0.2509,0,0,0,0,0,0,0.0707,0.0735,0.0756,0.0759,0.0792,0.0878,0.1008,0.1178,0.1231,0.1495,0.1593,0.1789,0.1965,0.2085,0.216,0.2196,0.2161,0.2523,0.2517,0.2557,0.2573,0.2587,0.2515,0,0,0,0,0]},{"header":{"parameterUnit":"m.s-1","parameterCategory":2,"la1":30.2991,"la2":30.254,"lo1":-89.0895,"lo2":-89.0444,"dy":0.0017,"dx":0.0017,"nx":28,"ny":28,"refTime":"2023-08-02T03:00:00:Z","depth":"4","parameterNumber":3,"parameterNumberName":"V-component_of_CURRENTS"},"data":[0,0,0,0,0,0,0,0,0,0,0,0,0,0,0,0,0,0,0,0,0,0,0,0,0,0,0,0,0,0,0,0,0,0,0,0,0,0,0,0,0,0,0,0,0,0,0,0,0,0,0,0,0,0,0,0,0,0,-0.0004,-0.0004,0,-0.0043,-0.0044,-0.0044,-0.0075,-0.0075,-0.0075,-0.0075,-0.0146,-0.0147,-0.0149,0,0,0,0,0,0,0,0,0,0,0,0,0,0.0005,0.0006,-0.0004,-0.0004,-0.0004,-0.0043,-0.0044,-0.0044,-0.0075,-0.0075,-0.0075,-0.0075,-0.0145,-0.0147,-0.0149,0,0,0,0,0,0,0,0,0,0,0,0,0,-0.0013,0.0006,-0.0004,-0.0024,-0.0026,-0.0043,-0.0044,-0.0045,-0.0075,-0.0075,-0.0075,-0.0076,-0.0144,-0.0147,-0.0149,-0.0159,0,0,-0.0157,-0.0158,0,0,0,0,0,0,0,0,-0.0012,-0.0014,-0.002,-0.0022,-0.0025,-0.0054,-0.0066,-0.0084,-0.0075,-0.0057,-0.0075,-0.0076,-0.0117,-0.0122,-0.0129,-0.0162,-0.0165,-0.0157,-0.0159,-0.016,-0.0161,0,0,0,0,0,0,0,-0.0011,-0.0012,-0.002,-0.0021,-0.0023,-0.0044,-0.0047,-0.007,-0.0086,-0.0058,-0.0061,-0.0064,-0.0119,-0.0127,-0.0131,-0.0166,-0.0157,-0.0159,-0.0161,-0.0162,-0.0223,-0.0223,0,0,0,0,0,0,-0.0002,-0.0011,-0.0019,-0.0021,-0.0018,-0.0044,-0.0047,-0.0045,-0.0085,-0.0091,-0.0063,-0.0065,-0.0122,-0.0128,-0.0134,-0.0157,-0.016,-0.0162,-0.0164,-0.0223,-0.0223,-0.0223,0,0,0,0,0,0,-0.0001,-0.0002,-0.0017,-0.0017,-0.002,-0.0043,-0.0041,-0.0045,-0.0055,-0.0088,-0.0095,-0.0068,-0.0123,-0.013,-0.0154,-0.016,-0.0163,-0.0166,-0.0223,-0.0223,-0.0223,-0.0197,0,0,0,0,0,0,-0.0001,-0.0001,0.0002,-0.0016,-0.002,-0.0029,-0.004,-0.0046,-0.0056,-0.0058,-0.0094,-0.0101,-0.0124,-0.015,-0.0156,-0.0163,-0.0168,-0.0223,-0.0223,-0.0223,-0.0198,-0.0196,-0.0195,0,0,0,0,0,-0.0,0.0008,0.0003,0.0002,-0.0013,-0.0029,-0.0033,-0.0052,-0.0055,-0.0061,-0.0082,-0.01,-0.0156,-0.0152,-0.0159,-0.0167,-0.0222,-0.0223,-0.0223,-0.0198,-0.0197,-0.0195,0,0,0,0,0,0,0.0012,0.0005,-0.0001,0.0005,-0.0012,-0.0034,-0.0037,-0.0049,-0.0069,-0.0069,-0.0101,-0.0109,-0.0133,-0.0152,-0.0146,-0.0185,-0.0193,-0.0194,-0.0171,-0.017,-0.0169,-0.0164,-0.017,0,0,0,0,0,0.0018,0.0024,0.0007,0.0011,0.0006,-0.0015,-0.0023,-0.0034,-0.0053,-0.0062,-0.0088,-0.0114,-0.014,-0.0155,-0.0179,-0.0199,-0.0229,-0.0209,-0.0208,-0.0207,-0.0208,-0.026,-0.0263,-0.0224,-0.0224,-0.0224,0,0,0.0023,0.0021,0.0023,0.0014,0.0002,-0.0,-0.0021,-0.0028,-0.0032,-0.0067,-0.008,-0.011,-0.0143,-0.0167,-0.0179,-0.0183,-0.0232,-0.0207,-0.0206,-0.0208,-0.0261,-0.0265,-0.0268,-0.0224,-0.0224,-0.0224,0,0,0.0041,0.0036,0.0047,0.0039,0.0028,0.0012,0.0012,-0.001,-0.0022,-0.004,-0.0066,-0.0099,-0.0133,-0.0164,-0.0182,-0.0188,-0.0222,-0.0193,-0.0185,-0.0235,-0.0239,-0.0243,-0.0279,-0.0287,-0.0193,-0.0193,-0.0193,0,0.0046,0.0067,0.0045,0.0054,0.0061,0.0021,0.0038,0.0011,-0.0016,-0.002,-0.004,-0.0097,-0.0134,-0.0164,-0.0174,-0.0186,-0.0214,-0.0187,-0.0234,-0.0238,-0.0243,-0.0279,-0.0288,-0.0192,-0.0192,-0.0192,-0.0193,0,0.0071,0.009,0.0097,0.0099,0.0094,0.0103,0.0073,0.0061,0.004,0.0014,-0.0019,-0.0077,-0.0108,-0.0133,-0.016,-0.0204,-0.0213,-0.0225,-0.0237,-0.0245,-0.0283,-0.0292,-0.019,-0.0191,-0.0191,-0.0192,0,0,0.0086,0.0113,0.0117,0.0148,0.013,0.0138,0.0123,0.011,0.012,0.0054,0.0053,-0.0029,-0.0064,-0.0088,-0.0133,-0.0193,-0.0257,-0.0223,-0.0226,-0.0258,-0.0361,-0.033,-0.0337,-0.0278,-0.028,-0.0281,-0.0373,0,0.0119,0.0175,0.0165,0.0212,0.0247,0.0216,0.022,0.0197,0.0162,0.0142,0.0054,0.0032,-0.0046,-0.0053,-0.0134,-0.0218,-0.0281,-0.0231,-0.035,-0.0354,-0.0324,-0.0347,-0.0286,-0.038,-0.0382,-0.0384,-0.0385,0,0.0154,0.0197,0.0266,0.0319,0.0329,0.0339,0.036,0.0359,0.0301,0.0272,0.0201,0.0136,0.0035,-0.0023,-0.0201,-0.0163,-0.0263,-0.0341,-0.0347,-0.0333,-0.034,-0.0374,-0.0402,-0.0401,-0.0399,-0.0398,-0.0397,0,0.0219,0.0269,0.0342,0.0358,0.0397,0.0421,0.0432,0.0405,0.0429,0.0357,0.0355,0.0213,0.0165,0.0003,-0.018,-0.0187,-0.0372,-0.0394,-0.0462,-0.0461,-0.0473,-0.0468,-0.052,-0.052,-0.052,-0.052,-0.0519,0,0.0278,0.0334,0.0385,0.0431,0.0523,0.0512,0.0586,0.0566,0.0553,0.0578,0.0436,0.0408,0.0167,0.003,-0.015,-0.0333,-0.0351,-0.0466,-0.0486,-0.0458,-0.045,-0.0479,-0.0473,-0.0523,-0.0522,-0.0522,-0.0521,0,0.034,0.0374,0.047,0.0536,0.0566,0.0634,0.0704,0.0746,0.0717,0.074,0.0725,0.0558,0.0367,0.0135,-0.0124,-0.0262,-0.0452,-0.051,-0.0451,-0.0465,-0.0516,-0.0508,-0.0594,-0.0593,-0.0593,-0.0593,-0.0593,0,0.0381,0.0442,0.0559,0.0633,0.0668,0.0764,0.083,0.0833,0.0862,0.0826,0.0829,0.067,0.0528,0.019,-0.0073,-0.0395,-0.0444,-0.0531,-0.0551,-0.0515,-0.0526,-0.0518,-0.051,-0.0593,-0.0593,-0.0593,-0.0592,0,0.0463,0.0506,0.0585,0.0729,0.0821,0.093,0.1002,0.1036,0.103,0.1015,0.0919,0.0731,0.0518,0.021,-0.0032,-0.0272,-0.0473,-0.053,-0.0533,-0.0552,-0.0515,-0.0524,-0.0516,-0.0592,-0.0592,-0.0592,-0.0592,0,0.0524,0.0585,0.0687,0.0811,0.0939,0.1037,0.1078,0.1093,0.112,0.1054,0.1019,0.0773,0.062,0.0275,0.0043,-0.0181,-0.0247,-0.0318,-0.0333,-0.0337,-0.0243,-0.0157,-0.0144,0,0,0,0,0,0.058,0.0641,0.0757,0.0878,0.1001,0.1068,0.1164,0.118,0.1168,0.1122,0.1072,0.0868,0.0518,0.0348,0.0131,0.0034,-0.0289,-0.0226,-0.0379,-0.0588,-0.0589,-0.0521,0,0,0,0,0,0,0.0613,0.0718,0.0756,0.0908,0.0992,0.1114,0.118,0.118,0.1138,0.1097,0.0905,0.0817,0.0464,0.0636,0.0122,0.0053,-0.007,-0.0395,-0.04,-0.0587,-0.0588,-0.0589,-0.0519,0,0,0,0,0]}]]